Regional Weather Roundup
Issued by NWS

Home | Current Version | Previous Version | Graphics & Text | Print | Product List | Glossary Off
Versions: 1 2 3 4 5 6 7 8 9 10 11 12 13 14 15 16 17 18 19 20 21 22 23 24 25 26 27 28 29 30 31 32 33 34 35 36 37 38 39 40 41 42 43 44 45 46 47 48 49 50

971
ASUS43 KMKX 261521
RWRWI

WISCONSIN REGIONAL WEATHER ROUNDUP
NATIONAL WEATHER SERVICE MILWAUKEE/SULLIVAN WI
1000 AM CDT SAT MAY 26 2018

NOTE: "FAIR" INDICATES FEW OR NO CLOUDS BELOW 12,000 FEET WITH NO
SIGNIFICANT WEATHER AND/OR OBSTRUCTIONS TO VISIBILITY.

WIZ001-002-006>008-014>016-023>028-261600-
NORTHWEST WISCONSIN

CITY           SKY/WX    TMP DP  RH WIND       PRES   REMARKS
SUPERIOR ARPT  FAIR      76  62  61 W5        29.67S
ASHLAND        FAIR      78  61  55 W10       29.68S HX  80
HAYWARD        FAIR      76  63  64 S8        29.71S
SIREN          FAIR      77  60  55 SW6       29.71S
CUMBERLAND     FAIR      73  61  64 SW8       29.72F
RICE LAKE      FAIR      76  63  65 SW5       29.74S
CHETEK         FAIR      75  64  68 SW6       29.73S
LADYSMITH      FAIR      76  64  64 SW7       29.75S
EAU CLAIRE     FAIR      76  64  66 SW8       29.73R
MENOMONIE      FAIR      77  65  66 S3        29.73S
NEW RICHMOND   FAIR      77  63  62 CALM      29.72F
OSCEOLA        FAIR      77  64  64 W3        29.75S
$$

WIZ003>005-009-010-017-018-261600-
NORTH CENTRAL WISCONSIN

CITY           SKY/WX    TMP DP  RH WIND       PRES   REMARKS
MANITOWISH WTR FAIR      76  60  57 S6        29.73F
ARBOR VITAE    FAIR      78  60  52 SW5       29.74F HX  80
WOODRUFF       FAIR      78  60  52 SW5       29.74F HX  80
RHINELANDER    FAIR      80  59  48 W5        29.77S HX  81
EAGLE RIVER    FAIR      76  57  51 SW5       29.75S
LAND O LAKES   FAIR      79  59  50 S5        29.76F HX  80
PHILLIPS       FAIR      78  63  60 S7        29.73F
TOMAHAWK       FAIR      77  57  49 CALM      29.77S
MEDFORD        FAIR      73  63  70 W6        29.76F
MERRILL        FAIR      78  61  56 CALM      29.76F
$$

WIZ029-030-035-036-043>047-261600-
CENTRAL WISCONSIN

CITY           SKY/WX    TMP DP  RH WIND       PRES   REMARKS
WAUSAU         NOT AVBL
MOSINEE        MOSUNNY   75  63  64 W5        29.78S
MARSHFIELD     FAIR      78  63  59 VRB5      29.76S HX  80
STEVENS POINT  FAIR      73  62  67 SW5       29.78S
WAUPACA        FAIR      80  61  52 W3        29.76F HX  81
WAUTOMA        FAIR      77  63  61 VRB3      29.77S
WISC RAPIDS    FAIR      77  62  59 SW7       29.78R
CAMP DOUGLAS   FAIR      78  67  69 W6        29.77S HX  80
$$

WIZ011>013-019>022-031-037>040-048>050-261600-
NORTHEAST WISCONSIN

CITY           SKY/WX    TMP DP  RH WIND       PRES   REMARKS
ANTIGO         FAIR      76  59  56 W7        29.78S
SHAWANO        FAIR      79  62  55 W5        29.75S HX  80
OCONTO         FAIR      78  62  57 W6        29.73S HX  80
STURGEON BAY   FAIR      77  63  61 NW9       29.75S
GREEN BAY      FAIR      81  61  50 W8        29.75S HX  82
MANITOWOC      NOT AVBL
APPLETON       MOSUNNY   75  57  53 W5        29.76S
CLINTONVILLE   FAIR      77  60  55 W5        29.76S
OSHKOSH        FAIR      77  63  61 NW8       29.76S
$$

WIZ032>034-041-042-053>061-261600-
SOUTHWEST WISCONSIN

CITY           SKY/WX    TMP DP  RH WIND       PRES   REMARKS
LA CROSSE      FAIR      75  66  73 S6        29.76R
SPARTA         FAIR      74  64  72 W6        29.77S
VIROQUA        FAIR      75  67  75 W8        29.79S
BOSCOBEL       FAIR      76  65  68 S3        29.78S
PRAIRIE DU CHI FAIR      76  64  66 W3        29.77F
PLATTEVILLE    FAIR      75  68  79 W8        29.81S
$$

WIZ056-057-062-063-064-067-068-261600-
SOUTH CENTRAL WISCONSIN

CITY           SKY/WX    TMP DP  RH WIND       PRES   REMARKS
REEDSBURG      FAIR      76  66  70 W6        29.78S
BARABOO/DELLS  FAIR      76  61  59 W7        29.79S
LONE ROCK      FAIR      76  66  71 W8        29.78S
MINERAL POINT  FAIR      77  68  73 W7        29.81S
MADISON        FAIR      77  63  61 CALM      29.78S
MIDDLETON      FAIR      78  63  59 W9        29.80S HX  80
WATERTOWN      FAIR      77  63  63 W7        29.78S
MONROE         FAIR      77  57  50 W8        29.81R
JANESVILLE     SUNNY     79  61  53 W7        29.79S HX  80
$$

WIZ051-052-058>065-066-070>072-261600-
SOUTHEAST WISCONSIN

CITY           SKY/WX    TMP DP  RH WIND       PRES   REMARKS
MILWAUKEE      FAIR      81  59  47 W14       29.77S HX  81
WAUKESHA       SUNNY     75  59  57 NW10      29.80R
MILWAUKEE/TIMM SUNNY     79  55  44 W9        29.78S
RACINE         FAIR      80  59  48 NW12      29.78S HX  81
BURLINGTON     FAIR      80  60  51 W7        29.79S HX  81
KENOSHA        FAIR      81  59  47 NW9       29.78S HX  81
FOND DU LAC    FAIR      78  62  57 W6        29.77S HX  80
SHEBOYGAN      FAIR      80  60  50 W10       29.75S HX  81
WEST BEND      FAIR      77  59  53 NW9       29.77S
JUNEAU         FAIR      76  62  61 W8        29.79S
$$

LSZ147-162-261600-
LAKE SUPERIOR

STATION/POSITION TIME  TEMP    WIND        PRES    WAVE
                       AIR SEA DIR/SP/G            HT/PER
                 (UTC) (F)     (DEG/KT/KT) (MB)    (FT/S)
W MID LAKE BUOY  1450   39 36  340/ 10/ 12 1005.5R   1
DEVILS ISLAND    1500   46      90/  5/  6 1005.5R
SAXON HARBOR     1440   77     180/  6/  9 1004.4S
$$

LMZ867-665-643>646-261600-
LAKE MICHIGAN

STATION/POSITION TIME  TEMP    WIND        PRES    WAVE
                       AIR SEA DIR/SP/G            HT/PER
                 (UTC) (F)     (DEG/KT/KT) (MB)    (FT/S)
N MID LAKE BUOY  1500   43 38  100/  6/  6 1008.8
NORTHPORT PIER   1440   56     120/  3/  3 1006.8F
KEWAUNEE LAKESHO 1454   80     300/  6/ 10 1006.3F
SHEBOYGAN LAKESH 1500   71     330/  2/  4 1006.9S
PORT WASHINGTON  1430   80     280/  7/ 15 1008.5S
ATWATER BUOY     1437   64 50  310/  8/ 10 1008.2F   1
MILWAUKEE LAKESH 1500   78     290/ 11/ 14   N/A
S MID LAKE BUOY  1450   46 39  170/  8/  8 1009.0R   1
KENOSHA   LAKESH 1500   79                 1007.8
$$

TC  - TEMPERATURE IN CELSIUS
VSB - VISIBILITY IN STATUTE MILES
WCI - WIND CHILL INDEX
HX  - HEAT INDEX





USA.gov is the U.S. government's official web portal to all federal, state and local government web resources and services.